Time,TemperatureF,DewpointF,PressureIn,WindDirection,WindDirectionDegrees,WindSpeedMPH,WindSpeedGustMPH,Humidity,HourlyPrecipIn,Conditions,Clouds,dailyrainin,SolarRadiationWatts/m^2,SoftwareType,DateUTC
2013-10-02 00:00:00,67.9,60.8,29.68,West,272,12.0,14.0,78,0.00,,---,0.00,0.00,VWS V14.01,2013-10-02 05:00:00,
2013-10-02 00:05:00,68.1,61.0,29.68,North,356,11.0,13.0,78,0.00,,---,0.00,0.00,VWS V14.01,2013-10-02 05:05:00,
2013-10-02 00:10:00,68.1,61.3,29.68,NW,312,13.0,13.0,79,0.00,,---,0.00,0.00,VWS V14.01,2013-10-02 05:10:00,
2013-10-02 00:15:00,68.1,61.3,29.68,North,352,6.0,13.0,79,0.00,,---,0.00,0.00,VWS V14.01,2013-10-02 05:15:00,
2013-10-02 00:20:00,68.1,61.3,29.68,WSW,237,10.0,12.0,79,0.00,,---,0.00,0.00,VWS V14.01,2013-10-02 05:20:00,
2013-10-02 00:25:00,68.1,61.3,29.68,NW,306,9.0,12.0,79,0.00,,---,0.00,0.00,VWS V14.01,2013-10-02 05:25:00,
2013-10-02 00:30:00,68.1,61.3,29.68,West,265,11.0,12.0,79,0.00,,---,0.00,0.00,VWS V14.01,2013-10-02 05:30:00,
2013-10-02 00:35:00,67.9,61.2,29.68,NNW,335,6.0,11.0,79,0.00,,---,0.00,0.00,VWS V14.01,2013-10-02 05:35:00,
2013-10-02 00:40:00,67.9,61.2,29.68,North,0,8.0,11.0,79,0.00,,---,0.00,0.00,VWS V14.01,2013-10-02 05:40:00,
2013-10-02 00:45:00,67.9,61.2,29.68,West,277,5.0,11.0,79,0.00,,---,0.00,0.00,VWS V14.01,2013-10-02 05:45:00,
2013-10-02 00:50:00,67.9,61.2,29.68,North,0,7.0,10.0,79,0.00,,---,0.00,0.00,VWS V14.01,2013-10-02 05:50:00,
2013-10-02 00:55:00,67.9,61.5,29.68,North,0,3.0,5.0,80,0.00,,---,0.00,0.00,VWS V14.01,2013-10-02 05:55:00,
2013-10-02 01:00:00,67.8,61.4,29.68,North,0,5.0,7.0,80,0.00,,---,0.00,0.00,VWS V14.01,2013-10-02 06:00:00,
2013-10-02 01:05:00,67.8,61.4,29.68,NNW,330,4.0,7.0,80,0.00,,---,0.00,0.00,VWS V14.01,2013-10-02 06:05:00,
2013-10-02 01:10:00,67.6,61.2,29.68,North,0,3.0,6.0,80,0.00,,---,0.00,0.00,VWS V14.01,2013-10-02 06:10:00,
2013-10-02 01:15:00,67.4,61.0,29.68,SSW,192,3.0,6.0,80,0.00,,---,0.00,0.00,VWS V14.01,2013-10-02 06:15:00,
2013-10-02 01:20:00,67.4,61.4,29.68,NNW,346,2.0,8.0,81,0.00,,---,0.00,0.00,VWS V14.01,2013-10-02 06:20:00,
2013-10-02 01:21:00,67.4,61.4,29.68,North,350,3.0,8.0,81,0.00,,---,0.00,0.00,VWS V14.01,2013-10-02 06:21:00,
2013-10-02 01:25:00,67.4,61.0,29.68,North,0,5.0,8.0,80,0.00,,---,0.00,0.00,VWS V14.01,2013-10-02 06:25:00,
2013-10-02 01:26:00,67.4,61.0,29.68,WNW,295,10.0,10.0,80,0.00,,---,0.00,0.00,VWS V14.01,2013-10-02 06:26:00,
2013-10-02 01:30:00,67.6,61.2,29.68,North,350,5.0,10.0,80,0.00,,---,0.00,0.00,VWS V14.01,2013-10-02 06:30:00,
2013-10-02 01:31:00,67.6,61.2,29.68,SSE,152,10.0,10.0,80,0.00,,---,0.00,0.00,VWS V14.01,2013-10-02 06:31:00,
2013-10-02 01:35:00,67.6,61.2,29.68,North,354,6.0,10.0,80,0.00,,---,0.00,0.00,VWS V14.01,2013-10-02 06:35:00,
2013-10-02 01:36:00,67.6,61.2,29.68,West,267,6.0,7.0,80,0.00,,---,0.00,0.00,VWS V14.01,2013-10-02 06:36:00,
2013-10-02 01:40:00,67.6,61.6,29.68,North,0,6.0,11.0,81,0.00,,---,0.00,0.00,VWS V14.01,2013-10-02 06:40:00,
2013-10-02 01:41:00,67.6,61.2,29.68,NNW,342,3.0,6.0,80,0.00,,---,0.00,0.00,VWS V14.01,2013-10-02 06:41:00,
2013-10-02 01:45:00,67.6,61.2,29.68,NNW,328,4.0,10.0,80,0.00,,---,0.00,0.00,VWS V14.01,2013-10-02 06:45:00,
2013-10-02 01:46:00,67.6,61.2,29.68,North,0,4.0,6.0,80,0.00,,---,0.00,0.00,VWS V14.01,2013-10-02 06:46:00,
2013-10-02 01:50:00,67.6,61.2,29.68,North,354,5.0,8.0,80,0.00,,---,0.00,0.00,VWS V14.01,2013-10-02 06:50:00,
2013-10-02 01:51:00,67.6,61.6,29.68,NW,312,6.0,7.0,81,0.00,,---,0.00,0.00,VWS V14.01,2013-10-02 06:51:00,
2013-10-02 01:55:00,67.6,61.6,29.68,North,0,6.0,8.0,81,0.00,,---,0.00,0.00,VWS V14.01,2013-10-02 06:55:00,
2013-10-02 01:56:00,67.6,61.2,29.68,North,356,6.0,6.0,80,0.00,,---,0.00,0.00,VWS V14.01,2013-10-02 06:56:00,
2013-10-02 02:00:00,67.4,61.4,29.68,SE,141,6.0,7.0,81,0.00,,---,0.00,0.00,VWS V14.01,2013-10-02 07:00:00,
2013-10-02 02:01:00,67.4,61.4,29.68,North,354,8.0,8.0,81,0.00,,---,0.00,0.00,VWS V14.01,2013-10-02 07:01:00,
2013-10-02 02:05:00,67.4,61.4,29.68,North,0,3.0,8.0,81,0.00,,---,0.00,0.00,VWS V14.01,2013-10-02 07:05:00,
2013-10-02 02:06:00,67.4,61.0,29.68,SSE,154,3.0,6.0,80,0.00,,---,0.00,0.00,VWS V14.01,2013-10-02 07:06:00,
2013-10-02 02:10:00,67.4,61.0,29.68,North,0,6.0,8.0,80,0.00,,---,0.00,0.00,VWS V14.01,2013-10-02 07:10:00,
2013-10-02 02:11:00,67.3,60.9,29.68,North,350,3.0,6.0,80,0.00,,---,0.00,0.00,VWS V14.01,2013-10-02 07:11:00,
2013-10-02 02:15:00,67.3,60.9,29.68,South,191,4.0,8.0,80,0.00,,---,0.00,0.00,VWS V14.01,2013-10-02 07:15:00,
2013-10-02 02:16:00,67.3,61.3,29.68,North,357,7.0,8.0,81,0.00,,---,0.00,0.00,VWS V14.01,2013-10-02 07:16:00,
2013-10-02 02:20:00,67.1,61.1,29.68,North,0,5.0,11.0,81,0.00,,---,0.00,0.00,VWS V14.01,2013-10-02 07:20:00,
2013-10-02 02:21:00,67.1,61.1,29.68,North,359,6.0,8.0,81,0.00,,---,0.00,0.00,VWS V14.01,2013-10-02 07:21:00,
2013-10-02 02:25:00,67.1,61.1,29.68,North,0,6.0,8.0,81,0.00,,---,0.00,0.00,VWS V14.01,2013-10-02 07:25:00,
2013-10-02 02:26:00,67.1,61.1,29.68,North,0,6.0,6.0,81,0.00,,---,0.00,0.00,VWS V14.01,2013-10-02 07:26:00,
2013-10-02 02:30:00,66.9,60.9,29.68,North,357,5.0,10.0,81,0.00,,---,0.00,0.00,VWS V14.01,2013-10-02 07:30:00,
2013-10-02 02:31:00,66.9,60.9,29.68,North,0,6.0,8.0,81,0.00,,---,0.00,0.00,VWS V14.01,2013-10-02 07:31:00,
2013-10-02 02:35:00,66.9,60.9,29.68,NNW,344,7.0,10.0,81,0.00,,---,0.00,0.00,VWS V14.01,2013-10-02 07:35:00,
2013-10-02 02:36:00,66.9,60.9,29.68,North,353,7.0,10.0,81,0.00,,---,0.00,0.00,VWS V14.01,2013-10-02 07:36:00,
2013-10-02 02:40:00,66.9,61.2,29.68,WSW,247,5.0,10.0,82,0.00,,---,0.00,0.00,VWS V14.01,2013-10-02 07:40:00,
2013-10-02 02:41:00,66.9,61.2,29.68,North,353,3.0,6.0,82,0.00,,---,0.00,0.00,VWS V14.01,2013-10-02 07:41:00,
2013-10-02 02:45:00,66.9,60.9,29.68,North,353,3.0,7.0,81,0.00,,---,0.00,0.00,VWS V14.01,2013-10-02 07:45:00,
2013-10-02 02:46:00,66.9,60.9,29.68,North,0,5.0,7.0,81,0.00,,---,0.00,0.00,VWS V14.01,2013-10-02 07:46:00,
2013-10-02 02:50:00,66.9,60.9,29.68,North,0,6.0,7.0,81,0.00,,---,0.00,0.00,VWS V14.01,2013-10-02 07:50:00,
2013-10-02 02:52:00,66.8,60.8,29.68,North,0,5.0,7.0,81,0.00,,---,0.00,0.00,VWS V14.01,2013-10-02 07:52:00,
2013-10-02 02:55:00,66.8,60.8,29.68,North,0,3.0,7.0,81,0.00,,---,0.00,0.00,VWS V14.01,2013-10-02 07:55:00,
2013-10-02 02:57:00,66.8,60.8,29.68,North,0,5.0,6.0,81,0.00,,---,0.00,0.00,VWS V14.01,2013-10-02 07:57:00,
2013-10-02 03:00:00,66.8,60.8,29.67,North,349,3.0,6.0,81,0.00,,---,0.00,0.00,VWS V14.01,2013-10-02 08:00:00,
2013-10-02 03:02:00,66.8,60.8,29.67,SSE,161,2.0,3.0,81,0.00,,---,0.00,0.00,VWS V14.01,2013-10-02 08:02:00,
2013-10-02 03:05:00,66.8,60.8,29.67,SW,224,3.0,6.0,81,0.00,,---,0.00,0.00,VWS V14.01,2013-10-02 08:05:00,
2013-10-02 03:07:00,66.8,60.8,29.67,SSE,162,3.0,6.0,81,0.00,,---,0.00,0.00,VWS V14.01,2013-10-02 08:07:00,
2013-10-02 03:10:00,66.8,60.8,29.67,SSE,168,2.0,6.0,81,0.00,,---,0.00,0.00,VWS V14.01,2013-10-02 08:10:00,
2013-10-02 03:12:00,66.6,60.6,29.67,SW,216,5.0,5.0,81,0.00,,---,0.00,0.00,VWS V14.01,2013-10-02 08:12:00,
2013-10-02 03:15:00,66.6,60.6,29.67,SSE,162,3.0,6.0,81,0.00,,---,0.00,0.00,VWS V14.01,2013-10-02 08:15:00,
2013-10-02 03:17:00,66.6,60.6,29.67,SSE,162,3.0,3.0,81,0.00,,---,0.00,0.00,VWS V14.01,2013-10-02 08:17:00,
2013-10-02 03:20:00,66.4,60.4,29.67,SSE,167,3.0,6.0,81,0.00,,---,0.00,0.00,VWS V14.01,2013-10-02 08:20:00,
2013-10-02 03:22:00,66.4,60.7,29.67,SSE,164,5.0,7.0,82,0.00,,---,0.00,0.00,VWS V14.01,2013-10-02 08:22:00,
2013-10-02 03:25:00,66.3,60.7,29.67,South,169,5.0,8.0,82,0.00,,---,0.00,0.00,VWS V14.01,2013-10-02 08:25:00,
2013-10-02 03:27:00,66.3,60.7,29.67,South,169,6.0,8.0,82,0.00,,---,0.00,0.00,VWS V14.01,2013-10-02 08:27:00,
2013-10-02 03:30:00,66.1,60.5,29.67,South,171,8.0,8.0,82,0.00,,---,0.00,0.00,VWS V14.01,2013-10-02 08:30:00,
2013-10-02 03:32:00,66.1,60.5,29.67,WSW,253,6.0,8.0,82,0.00,,---,0.00,0.00,VWS V14.01,2013-10-02 08:32:00,
2013-10-02 03:35:00,66.1,60.5,29.67,SSW,192,4.0,10.0,82,0.00,,---,0.00,0.00,VWS V14.01,2013-10-02 08:35:00,
2013-10-02 03:37:00,66.1,60.5,29.67,SSE,168,6.0,8.0,82,0.00,,---,0.00,0.00,VWS V14.01,2013-10-02 08:37:00,
2013-10-02 03:40:00,66.1,60.5,29.67,South,191,6.0,8.0,82,0.00,,---,0.00,0.00,VWS V14.01,2013-10-02 08:40:00,
2013-10-02 03:42:00,66.1,60.5,29.67,South,184,9.0,9.0,82,0.00,,---,0.00,0.00,VWS V14.01,2013-10-02 08:42:00,
2013-10-02 03:45:00,66.1,60.5,29.67,South,171,6.0,10.0,82,0.00,,---,0.00,0.00,VWS V14.01,2013-10-02 08:45:00,
2013-10-02 03:47:00,66.1,60.5,29.67,South,179,7.0,8.0,82,0.00,,---,0.00,0.00,VWS V14.01,2013-10-02 08:47:00,
2013-10-02 03:50:00,66.1,60.5,29.67,SSE,164,6.0,8.0,82,0.00,,---,0.00,0.00,VWS V14.01,2013-10-02 08:50:00,
2013-10-02 03:52:00,66.1,60.8,29.67,SSE,162,5.0,8.0,83,0.00,,---,0.00,0.00,VWS V14.01,2013-10-02 08:52:00,
2013-10-02 03:55:00,66.1,60.8,29.67,South,171,6.0,10.0,83,0.00,,---,0.00,0.00,VWS V14.01,2013-10-02 08:55:00,
2013-10-02 03:57:00,66.0,60.7,29.67,South,189,4.0,9.0,83,0.00,,---,0.00,0.00,VWS V14.01,2013-10-02 08:57:00,
2013-10-02 04:00:00,66.0,60.7,29.67,South,191,9.0,10.0,83,0.00,,---,0.00,0.00,VWS V14.01,2013-10-02 09:00:00,
2013-10-02 04:02:00,66.1,60.8,29.67,SSW,193,7.0,9.0,83,0.00,,---,0.00,0.00,VWS V14.01,2013-10-02 09:02:00,
2013-10-02 04:05:00,66.1,60.8,29.67,SSW,192,8.0,9.0,83,0.00,,---,0.00,0.00,VWS V14.01,2013-10-02 09:05:00,
2013-10-02 04:07:00,66.1,60.8,29.67,SSW,195,6.0,9.0,83,0.00,,---,0.00,0.00,VWS V14.01,2013-10-02 09:07:00,
2013-10-02 04:10:00,66.1,60.8,29.67,SSW,192,8.0,10.0,83,0.00,,---,0.00,0.00,VWS V14.01,2013-10-02 09:10:00,
2013-10-02 04:13:00,66.1,60.8,29.67,South,191,6.0,10.0,83,0.00,,---,0.00,0.00,VWS V14.01,2013-10-02 09:13:00,
2013-10-02 04:15:00,66.1,61.1,29.67,South,172,6.0,10.0,84,0.00,,---,0.00,0.00,VWS V14.01,2013-10-02 09:15:00,
2013-10-02 04:18:00,66.1,61.1,29.67,South,175,7.0,11.0,84,0.00,,---,0.00,0.00,VWS V14.01,2013-10-02 09:18:00,
2013-10-02 04:20:00,66.1,61.1,29.67,SSW,206,8.0,11.0,84,0.00,,---,0.00,0.00,VWS V14.01,2013-10-02 09:20:00,
2013-10-02 04:23:00,66.1,61.1,29.67,SSW,199,5.0,8.0,84,0.00,,---,0.00,0.00,VWS V14.01,2013-10-02 09:23:00,
2013-10-02 04:25:00,66.0,61.0,29.67,South,189,8.0,8.0,84,0.00,,---,0.00,0.00,VWS V14.01,2013-10-02 09:25:00,
2013-10-02 04:28:00,66.0,61.0,29.67,WSW,258,7.0,10.0,84,0.00,,---,0.00,0.00,VWS V14.01,2013-10-02 09:28:00,
2013-10-02 04:30:00,66.0,61.4,29.67,South,189,7.0,10.0,85,0.00,,---,0.00,0.00,VWS V14.01,2013-10-02 09:30:00,
2013-10-02 04:33:00,66.0,61.4,29.67,South,189,6.0,8.0,85,0.00,,---,0.00,0.00,VWS V14.01,2013-10-02 09:33:00,
2013-10-02 04:35:00,66.0,61.4,29.67,South,189,7.0,8.0,85,0.00,,---,0.00,0.00,VWS V14.01,2013-10-02 09:35:00,
2013-10-02 04:38:00,65.8,61.2,29.67,SSW,192,9.0,9.0,85,0.00,,---,0.00,0.00,VWS V14.01,2013-10-02 09:38:00,
2013-10-02 04:40:00,66.0,61.7,29.67,South,189,5.0,9.0,86,0.00,,---,0.00,0.00,VWS V14.01,2013-10-02 09:40:00,
2013-10-02 04:43:00,66.0,61.7,29.67,South,179,7.0,9.0,86,0.00,,---,0.00,0.00,VWS V14.01,2013-10-02 09:43:00,
2013-10-02 04:45:00,66.0,61.7,29.67,South,191,7.0,9.0,86,0.00,,---,0.00,0.00,VWS V14.01,2013-10-02 09:45:00,
2013-10-02 04:48:00,66.0,61.7,29.67,SSW,206,5.0,11.0,86,0.00,,---,0.00,0.00,VWS V14.01,2013-10-02 09:48:00,
2013-10-02 04:50:00,66.0,61.7,29.67,South,184,4.0,11.0,86,0.00,,---,0.00,0.00,VWS V14.01,2013-10-02 09:50:00,
2013-10-02 04:53:00,66.1,61.8,29.67,SSE,165,5.0,12.0,86,0.00,,---,0.00,0.00,VWS V14.01,2013-10-02 09:53:00,
2013-10-02 04:55:00,66.0,61.7,29.67,SSE,162,6.0,12.0,86,0.00,,---,0.00,0.00,VWS V14.01,2013-10-02 09:55:00,
2013-10-02 04:58:00,66.0,61.7,29.67,South,169,7.0,10.0,86,0.00,,---,0.00,0.00,VWS V14.01,2013-10-02 09:58:00,
2013-10-02 05:00:00,66.1,61.8,29.67,South,184,8.0,11.0,86,0.00,,---,0.00,0.00,VWS V14.01,2013-10-02 10:00:00,
2013-10-02 05:03:00,66.1,62.1,29.67,SSE,164,8.0,11.0,87,0.00,,---,0.00,0.00,VWS V14.01,2013-10-02 10:03:00,
2013-10-02 05:05:00,66.1,62.1,29.67,SSE,162,6.0,11.0,87,0.00,,---,0.00,0.00,VWS V14.01,2013-10-02 10:05:00,
2013-10-02 05:08:00,66.1,61.8,29.67,SSE,165,9.0,11.0,86,0.00,,---,0.00,0.00,VWS V14.01,2013-10-02 10:08:00,
2013-10-02 05:10:00,66.1,62.1,29.67,South,182,10.0,11.0,87,0.00,,---,0.00,0.00,VWS V14.01,2013-10-02 10:10:00,
2013-10-02 05:13:00,66.1,62.1,29.67,South,169,9.0,11.0,87,0.00,,---,0.00,0.00,VWS V14.01,2013-10-02 10:13:00,
2013-10-02 05:15:00,66.1,62.1,29.67,South,171,10.0,12.0,87,0.00,,---,0.00,0.00,VWS V14.01,2013-10-02 10:15:00,
2013-10-02 05:18:00,66.1,62.1,29.67,South,181,7.0,11.0,87,0.00,,---,0.00,0.00,VWS V14.01,2013-10-02 10:18:00,
2013-10-02 05:20:00,66.0,62.0,29.67,SSE,167,10.0,11.0,87,0.00,,---,0.00,0.00,VWS V14.01,2013-10-02 10:20:00,
2013-10-02 05:23:00,66.0,62.0,29.67,South,169,5.0,11.0,87,0.00,,---,0.00,0.00,VWS V14.01,2013-10-02 10:23:00,
2013-10-02 05:25:00,66.0,62.0,29.67,SSE,164,8.0,11.0,87,0.00,,---,0.00,0.00,VWS V14.01,2013-10-02 10:25:00,
2013-10-02 05:28:00,66.0,62.3,29.67,SSE,161,6.0,12.0,88,0.00,,---,0.00,0.00,VWS V14.01,2013-10-02 10:28:00,
2013-10-02 05:30:00,66.0,62.3,29.67,SSE,162,6.0,12.0,88,0.00,,---,0.00,0.00,VWS V14.01,2013-10-02 10:30:00,
2013-10-02 05:33:00,66.0,62.3,29.67,SSE,165,7.0,11.0,88,0.00,,---,0.00,0.00,VWS V14.01,2013-10-02 10:33:00,
2013-10-02 05:35:00,66.0,62.3,29.67,SSE,167,8.0,11.0,88,0.00,,---,0.00,0.00,VWS V14.01,2013-10-02 10:35:00,
2013-10-02 05:38:00,65.8,62.2,29.67,South,176,9.0,10.0,88,0.00,,---,0.00,0.00,VWS V14.01,2013-10-02 10:38:00,
2013-10-02 05:40:00,65.8,62.2,29.67,SSE,164,5.0,11.0,88,0.00,,---,0.00,0.00,VWS V14.01,2013-10-02 10:40:00,
2013-10-02 05:43:00,65.8,62.5,29.67,SSE,160,2.0,10.0,89,0.00,,---,0.00,0.00,VWS V14.01,2013-10-02 10:43:00,
2013-10-02 05:45:00,65.8,62.5,29.67,SSE,162,10.0,10.0,89,0.00,,---,0.00,0.00,VWS V14.01,2013-10-02 10:45:00,
2013-10-02 05:49:00,65.8,62.5,29.67,SSE,157,5.0,10.0,89,0.00,,---,0.00,0.00,VWS V14.01,2013-10-02 10:49:00,
2013-10-02 05:50:00,65.8,62.5,29.67,SSE,155,3.0,10.0,89,0.00,,---,0.00,0.00,VWS V14.01,2013-10-02 10:50:00,
2013-10-02 05:54:00,65.8,62.5,29.67,SSE,161,5.0,10.0,89,0.00,,---,0.00,0.00,VWS V14.01,2013-10-02 10:54:00,
2013-10-02 05:55:00,65.8,62.5,29.67,SSE,162,8.0,10.0,89,0.00,,---,0.00,0.00,VWS V14.01,2013-10-02 10:55:00,
2013-10-02 05:59:00,66.0,62.7,29.67,SSE,165,10.0,11.0,89,0.00,,---,0.00,0.00,VWS V14.01,2013-10-02 10:59:00,
2013-10-02 06:00:00,66.0,62.7,29.67,SSE,161,6.0,11.0,89,0.00,,---,0.00,0.00,VWS V14.01,2013-10-02 11:00:00,
2013-10-02 06:04:00,66.0,63.0,29.67,SSE,168,8.0,13.0,90,0.00,,---,0.00,0.00,VWS V14.01,2013-10-02 11:04:00,
2013-10-02 06:05:00,66.0,63.0,29.67,SSE,157,4.0,13.0,90,0.00,,---,0.00,0.00,VWS V14.01,2013-10-02 11:05:00,
2013-10-02 06:09:00,66.0,63.0,29.67,SSE,168,10.0,11.0,90,0.00,,---,0.00,0.00,VWS V14.01,2013-10-02 11:09:00,
2013-10-02 06:10:00,66.0,63.0,29.67,South,169,4.0,11.0,90,0.00,,---,0.00,0.00,VWS V14.01,2013-10-02 11:10:00,
2013-10-02 06:14:00,66.0,63.0,29.67,SSE,165,8.0,11.0,90,0.00,,---,0.00,0.00,VWS V14.01,2013-10-02 11:14:00,
2013-10-02 06:15:00,66.0,63.0,29.68,SSE,164,7.0,11.0,90,0.00,,---,0.00,0.00,VWS V14.01,2013-10-02 11:15:00,
2013-10-02 06:19:00,66.0,63.0,29.68,SSE,165,7.0,12.0,90,0.00,,---,0.00,0.00,VWS V14.01,2013-10-02 11:19:00,
2013-10-02 06:20:00,66.0,63.0,29.68,SSE,165,10.0,12.0,90,0.00,,---,0.00,0.00,VWS V14.01,2013-10-02 11:20:00,
2013-10-02 06:24:00,66.0,63.3,29.68,South,171,7.0,13.0,91,0.00,,---,0.00,0.00,VWS V14.01,2013-10-02 11:24:00,
2013-10-02 06:25:00,66.0,63.3,29.68,SSE,167,8.0,13.0,91,0.00,,---,0.00,0.00,VWS V14.01,2013-10-02 11:25:00,
2013-10-02 06:29:00,66.0,63.3,29.68,SSE,167,6.0,14.0,91,0.00,,---,0.00,0.00,VWS V14.01,2013-10-02 11:29:00,
2013-10-02 06:30:00,66.0,63.3,29.68,SSE,168,8.0,14.0,91,0.00,,---,0.00,0.00,VWS V14.01,2013-10-02 11:30:00,
2013-10-02 06:34:00,65.8,63.1,29.68,South,191,7.0,12.0,91,0.00,,---,0.00,0.00,VWS V14.01,2013-10-02 11:34:00,
2013-10-02 06:35:00,65.8,63.1,29.68,South,189,6.0,12.0,91,0.00,,---,0.00,0.00,VWS V14.01,2013-10-02 11:35:00,
2013-10-02 06:39:00,65.8,63.1,29.68,SSE,165,5.0,11.0,91,0.00,,---,0.00,0.00,VWS V14.01,2013-10-02 11:39:00,
2013-10-02 06:40:00,65.8,63.4,29.68,SSE,162,7.0,11.0,92,0.00,,---,0.00,0.00,VWS V14.01,2013-10-02 11:40:00,
2013-10-02 06:44:00,65.6,63.2,29.68,SSE,162,6.0,10.0,92,0.00,,---,0.00,0.00,VWS V14.01,2013-10-02 11:44:00,
2013-10-02 06:45:00,65.6,63.2,29.68,SSE,165,2.0,10.0,92,0.00,,---,0.00,0.00,VWS V14.01,2013-10-02 11:45:00,
2013-10-02 06:49:00,65.6,63.2,29.68,SSE,167,3.0,6.0,92,0.00,,---,0.00,0.00,VWS V14.01,2013-10-02 11:49:00,
2013-10-02 06:50:00,65.6,63.2,29.68,SSE,157,5.0,6.0,92,0.00,,---,0.00,0.00,VWS V14.01,2013-10-02 11:50:00,
2013-10-02 06:54:00,65.6,63.2,29.68,SSE,167,6.0,7.0,92,0.00,,---,0.00,0.00,VWS V14.01,2013-10-02 11:54:00,
2013-10-02 06:55:00,65.5,63.1,29.68,SSE,161,6.0,7.0,92,0.00,,---,0.00,0.00,VWS V14.01,2013-10-02 11:55:00,
2013-10-02 07:00:00,65.5,63.1,29.68,SSE,161,3.0,10.0,92,0.00,,---,0.00,0.00,VWS V14.01,2013-10-02 12:00:00,
2013-10-02 07:05:00,65.3,62.9,29.68,South,181,10.0,11.0,92,0.00,,---,0.00,0.00,VWS V14.01,2013-10-02 12:05:00,
2013-10-02 07:10:00,65.3,63.2,29.68,South,191,8.0,12.0,93,0.00,,---,0.00,0.00,VWS V14.01,2013-10-02 12:10:00,
2013-10-02 07:15:00,65.5,63.4,29.69,South,189,8.0,11.0,93,0.00,,---,0.00,0.00,VWS V14.01,2013-10-02 12:15:00,
2013-10-02 07:20:00,65.8,63.7,29.69,South,176,11.0,12.0,93,0.00,,---,0.00,0.00,VWS V14.01,2013-10-02 12:20:00,
2013-10-02 07:25:00,66.0,64.2,29.69,South,184,10.0,12.0,94,0.00,,---,0.00,0.00,VWS V14.01,2013-10-02 12:25:00,
2013-10-02 07:30:00,66.3,64.5,29.70,SSW,192,12.0,13.0,94,0.00,,---,0.00,0.00,VWS V14.01,2013-10-02 12:30:00,
2013-10-02 07:35:00,66.3,64.5,29.70,SSW,192,8.0,14.0,94,0.00,,---,0.00,0.00,VWS V14.01,2013-10-02 12:35:00,
2013-10-02 07:40:00,66.6,65.1,29.70,SSW,202,7.0,16.0,95,0.00,,---,0.00,14.00,VWS V14.01,2013-10-02 12:40:00,
2013-10-02 07:45:00,66.6,65.1,29.70,South,189,10.0,14.0,95,0.00,,---,0.00,14.00,VWS V14.01,2013-10-02 12:45:00,
2013-10-02 07:50:00,66.6,65.1,29.70,SSW,192,11.0,15.0,95,0.00,,---,0.00,23.00,VWS V14.01,2013-10-02 12:50:00,
2013-10-02 07:55:00,66.8,65.3,29.70,SSW,192,7.0,13.0,95,0.00,,---,0.00,30.00,VWS V14.01,2013-10-02 12:55:00,
2013-10-02 08:00:00,66.8,65.3,29.69,South,180,9.0,13.0,95,0.00,,---,0.00,30.00,VWS V14.01,2013-10-02 13:00:00,
2013-10-02 08:05:00,66.8,65.6,29.69,South,180,9.0,12.0,96,0.00,,---,0.00,35.00,VWS V14.01,2013-10-02 13:05:00,
2013-10-02 08:10:00,66.8,65.3,29.69,South,180,9.0,12.0,95,0.00,,---,0.00,42.00,VWS V14.01,2013-10-02 13:10:00,
2013-10-02 08:15:00,66.9,65.4,29.70,SSE,158,8.0,10.0,95,0.00,,---,0.00,39.00,VWS V14.01,2013-10-02 13:15:00,
2013-10-02 08:20:00,67.3,66.1,29.70,South,180,10.0,14.0,96,0.00,,---,0.00,37.00,VWS V14.01,2013-10-02 13:20:00,
2013-10-02 08:25:00,67.4,66.2,29.70,South,180,12.0,17.0,96,0.00,,---,0.00,37.00,VWS V14.01,2013-10-02 13:25:00,
2013-10-02 08:30:00,67.6,66.4,29.70,South,180,11.0,17.0,96,0.00,,---,0.00,40.00,VWS V14.01,2013-10-02 13:30:00,
2013-10-02 08:35:00,67.8,66.6,29.70,South,180,13.0,16.0,96,0.00,,---,0.00,40.00,VWS V14.01,2013-10-02 13:35:00,
2013-10-02 08:40:00,67.9,66.7,29.70,South,180,13.0,19.0,96,0.00,,---,0.00,49.00,VWS V14.01,2013-10-02 13:40:00,
2013-10-02 08:45:00,67.9,66.7,29.71,South,180,8.0,13.0,96,0.00,,---,0.00,58.00,VWS V14.01,2013-10-02 13:45:00,
2013-10-02 08:50:00,68.1,66.9,29.71,SSE,158,13.0,17.0,96,0.00,,---,0.00,69.00,VWS V14.01,2013-10-02 13:50:00,
2013-10-02 08:55:00,68.1,66.9,29.71,South,180,13.0,20.0,96,0.00,,---,0.00,73.00,VWS V14.01,2013-10-02 13:55:00,
2013-10-02 09:00:00,68.1,67.2,29.71,South,180,13.0,20.0,97,0.00,,---,0.00,79.00,VWS V14.01,2013-10-02 14:00:00,
2013-10-02 09:05:00,68.1,67.2,29.71,SSE,158,15.0,21.0,97,0.00,,---,0.00,96.00,VWS V14.01,2013-10-02 14:05:00,
2013-10-02 09:10:00,68.3,67.1,29.71,South,180,15.0,21.0,96,0.00,,---,0.00,122.00,VWS V14.01,2013-10-02 14:10:00,
2013-10-02 09:15:00,68.3,67.1,29.71,SSE,158,12.0,20.0,96,0.00,,---,0.00,109.00,VWS V14.01,2013-10-02 14:15:00,
2013-10-02 09:20:00,68.4,67.2,29.71,SSE,158,12.0,20.0,96,0.00,,---,0.00,120.00,VWS V14.01,2013-10-02 14:20:00,
2013-10-02 09:25:00,68.4,67.2,29.71,South,180,14.0,21.0,96,0.00,,---,0.00,117.00,VWS V14.01,2013-10-02 14:25:00,
2013-10-02 09:30:00,68.8,67.6,29.71,South,180,13.0,21.0,96,0.00,,---,0.00,122.00,VWS V14.01,2013-10-02 14:30:00,
2013-10-02 09:35:00,68.9,67.7,29.71,SSE,158,10.0,20.0,96,0.00,,---,0.00,137.00,VWS V14.01,2013-10-02 14:35:00,
2013-10-02 09:40:00,68.9,67.7,29.71,SSE,158,15.0,21.0,96,0.00,,---,0.00,135.00,VWS V14.01,2013-10-02 14:40:00,
2013-10-02 09:45:00,69.1,67.9,29.71,SSE,158,10.0,20.0,96,0.00,,---,0.00,167.00,VWS V14.01,2013-10-02 14:45:00,
2013-10-02 09:50:00,69.3,68.1,29.71,SSE,158,9.0,12.0,96,0.00,,---,0.00,180.00,VWS V14.01,2013-10-02 14:50:00,
2013-10-02 09:55:00,69.4,67.9,29.71,SSE,158,13.0,21.0,95,0.00,,---,0.00,193.00,VWS V14.01,2013-10-02 14:55:00,
2013-10-02 10:00:00,69.8,68.0,29.71,South,180,11.0,19.0,94,0.00,,---,0.00,194.00,VWS V14.01,2013-10-02 15:00:00,
2013-10-02 10:05:00,69.9,68.1,29.71,SSE,158,12.0,18.0,94,0.00,,---,0.00,218.00,VWS V14.01,2013-10-02 15:05:00,
2013-10-02 10:10:00,70.3,67.9,29.71,SSE,158,11.0,18.0,92,0.00,,---,0.00,255.00,VWS V14.01,2013-10-02 15:10:00,
2013-10-02 10:15:00,70.9,67.5,29.71,SSE,158,13.0,18.0,89,0.00,,---,0.00,396.00,VWS V14.01,2013-10-02 15:15:00,
2013-10-02 10:20:00,71.5,67.1,29.71,SSE,158,12.0,18.0,86,0.00,,---,0.00,396.00,VWS V14.01,2013-10-02 15:20:00,
2013-10-02 10:25:00,71.8,67.1,29.71,SSE,158,11.0,18.0,85,0.00,,---,0.00,223.00,VWS V14.01,2013-10-02 15:25:00,
2013-10-02 10:30:00,71.8,67.1,29.71,SSE,158,12.0,20.0,85,0.00,,---,0.00,203.00,VWS V14.01,2013-10-02 15:30:00,
2013-10-02 10:35:00,71.6,66.9,29.71,SSE,158,13.0,20.0,85,0.00,,---,0.00,187.00,VWS V14.01,2013-10-02 15:35:00,
2013-10-02 10:40:00,71.8,67.1,29.71,SSE,158,12.0,20.0,85,0.00,,---,0.00,203.00,VWS V14.01,2013-10-02 15:40:00,
2013-10-02 10:45:00,72.0,67.6,29.71,SSE,158,14.0,20.0,86,0.00,,---,0.00,230.00,VWS V14.01,2013-10-02 15:45:00,
2013-10-02 10:50:00,72.3,67.5,29.71,SSE,158,10.0,17.0,85,0.00,,---,0.00,219.00,VWS V14.01,2013-10-02 15:50:00,
2013-10-02 10:55:00,72.5,67.1,29.71,SSE,158,14.0,24.0,83,0.00,,---,0.00,246.00,VWS V14.01,2013-10-02 15:55:00,
2013-10-02 11:00:00,72.7,66.9,29.71,SSE,158,12.0,20.0,82,0.00,,---,0.00,266.00,VWS V14.01,2013-10-02 16:00:00,
2013-10-02 11:05:00,73.0,67.2,29.71,SSE,158,14.0,22.0,82,0.00,,---,0.00,285.00,VWS V14.01,2013-10-02 16:05:00,
2013-10-02 11:10:00,73.2,66.7,29.71,SSE,158,12.0,19.0,80,0.00,,---,0.00,260.00,VWS V14.01,2013-10-02 16:10:00,
2013-10-02 11:15:00,73.5,66.6,29.70,SSE,158,14.0,22.0,79,0.00,,---,0.00,250.00,VWS V14.01,2013-10-02 16:15:00,
2013-10-02 11:20:00,73.7,66.8,29.70,SSE,158,14.0,22.0,79,0.00,,---,0.00,267.00,VWS V14.01,2013-10-02 16:20:00,
2013-10-02 11:25:00,74.0,67.1,29.70,South,180,13.0,24.0,79,0.00,,---,0.00,262.00,VWS V14.01,2013-10-02 16:25:00,
2013-10-02 11:30:00,74.6,66.9,29.70,SSE,158,11.0,17.0,77,0.00,,---,0.00,299.00,VWS V14.01,2013-10-02 16:30:00,
2013-10-02 11:35:00,74.7,66.3,29.70,SSE,158,17.0,22.0,75,0.00,,---,0.00,299.00,VWS V14.01,2013-10-02 16:35:00,
2013-10-02 11:40:00,74.9,66.4,29.70,South,180,17.0,28.0,75,0.00,,---,0.00,271.00,VWS V14.01,2013-10-02 16:40:00,
2013-10-02 11:45:00,74.9,66.4,29.70,SSE,158,17.0,27.0,75,0.00,,---,0.00,247.00,VWS V14.01,2013-10-02 16:45:00,
2013-10-02 11:50:00,75.1,66.6,29.70,South,180,17.0,24.0,75,0.00,,---,0.00,276.00,VWS V14.01,2013-10-02 16:50:00,
2013-10-02 11:55:00,75.1,66.6,29.70,SSE,158,18.0,24.0,75,0.00,,---,0.00,275.00,VWS V14.01,2013-10-02 16:55:00,
2013-10-02 12:00:00,75.3,66.8,29.70,South,180,15.0,24.0,75,0.00,,---,0.00,277.00,VWS V14.01,2013-10-02 17:00:00,
2013-10-02 12:05:00,76.0,67.1,29.70,SSE,158,16.0,21.0,74,0.00,,---,0.00,280.00,VWS V14.01,2013-10-02 17:05:00,
2013-10-02 12:10:00,76.0,66.7,29.70,South,180,19.0,27.0,73,0.00,,---,0.00,317.00,VWS V14.01,2013-10-02 17:10:00,
2013-10-02 12:15:00,76.1,66.4,29.69,South,180,18.0,24.0,72,0.00,,---,0.00,317.00,VWS V14.01,2013-10-02 17:15:00,
2013-10-02 12:20:00,76.7,66.6,29.69,SSE,158,13.0,18.0,71,0.00,,---,0.00,370.00,VWS V14.01,2013-10-02 17:20:00,
2013-10-02 12:25:00,76.7,66.6,29.69,South,180,16.0,20.0,71,0.00,,---,0.00,253.00,VWS V14.01,2013-10-02 17:25:00,
2013-10-02 12:30:00,77.0,67.3,29.68,South,180,17.0,26.0,72,0.00,,---,0.00,195.00,VWS V14.01,2013-10-02 17:30:00,
2013-10-02 12:35:00,77.2,67.1,29.68,South,180,18.0,26.0,71,0.00,,---,0.00,208.00,VWS V14.01,2013-10-02 17:35:00,
2013-10-02 12:40:00,77.6,67.5,29.68,South,180,17.0,24.0,71,0.00,,---,0.00,266.00,VWS V14.01,2013-10-02 17:40:00,
2013-10-02 12:45:00,78.1,67.1,29.67,SSE,158,14.0,24.0,69,0.00,,---,0.00,207.00,VWS V14.01,2013-10-02 17:45:00,
2013-10-02 12:50:00,78.3,67.3,29.67,SSE,158,12.0,22.0,69,0.00,,---,0.00,227.00,VWS V14.01,2013-10-02 17:50:00,
2013-10-02 12:55:00,78.1,66.7,29.67,South,180,13.0,18.0,68,0.00,,---,0.00,245.00,VWS V14.01,2013-10-02 17:55:00,
2013-10-02 13:00:00,78.6,66.3,29.66,SSE,158,14.0,20.0,66,0.00,,---,0.00,245.00,VWS V14.01,2013-10-02 18:00:00,
2013-10-02 13:05:00,79.0,66.7,29.66,SSE,158,14.0,21.0,66,0.00,,---,0.00,245.00,VWS V14.01,2013-10-02 18:05:00,
2013-10-02 13:10:00,79.2,66.4,29.66,SSE,158,15.0,17.0,65,0.00,,---,0.00,245.00,VWS V14.01,2013-10-02 18:10:00,
2013-10-02 13:15:00,79.6,66.8,29.66,SE,135,10.0,14.0,65,0.00,,---,0.00,245.00,VWS V14.01,2013-10-02 18:15:00,
2013-10-02 13:20:00,79.6,65.4,29.66,SSE,158,14.0,18.0,62,0.00,,---,0.00,252.00,VWS V14.01,2013-10-02 18:20:00,
2013-10-02 13:25:00,80.1,65.9,29.66,SE,135,14.0,26.0,62,0.00,,---,0.00,243.00,VWS V14.01,2013-10-02 18:25:00,
2013-10-02 13:30:00,80.3,65.6,29.65,SSE,158,11.0,16.0,61,0.00,,---,0.00,243.00,VWS V14.01,2013-10-02 18:30:00,
2013-10-02 13:35:00,80.3,65.6,29.65,SSE,158,12.0,20.0,61,0.00,,---,0.00,218.00,VWS V14.01,2013-10-02 18:35:00,
2013-10-02 13:40:00,80.7,65.5,29.65,SSE,158,16.0,25.0,60,0.00,,---,0.00,776.00,VWS V14.01,2013-10-02 18:40:00,
2013-10-02 13:45:00,80.9,65.7,29.64,SE,135,12.0,20.0,60,0.00,,---,0.00,758.00,VWS V14.01,2013-10-02 18:45:00,
2013-10-02 13:50:00,81.1,65.9,29.64,SSE,158,12.0,24.0,60,0.00,,---,0.00,758.00,VWS V14.01,2013-10-02 18:50:00,
2013-10-02 13:55:00,81.2,65.5,29.64,SSE,158,11.0,20.0,59,0.00,,---,0.00,431.00,VWS V14.01,2013-10-02 18:55:00,
2013-10-02 14:00:00,81.6,65.9,29.63,SSE,158,15.0,24.0,59,0.00,,---,0.00,211.00,VWS V14.01,2013-10-02 19:00:00,
2013-10-02 14:05:00,81.4,65.2,29.63,SSE,158,14.0,24.0,58,0.00,,---,0.00,159.00,VWS V14.01,2013-10-02 19:05:00,
2013-10-02 14:10:00,81.4,65.2,29.63,SSE,158,13.0,24.0,58,0.00,,---,0.00,199.00,VWS V14.01,2013-10-02 19:10:00,
2013-10-02 14:15:00,81.8,65.6,29.62,SSE,158,12.0,20.0,58,0.00,,---,0.00,181.00,VWS V14.01,2013-10-02 19:15:00,
2013-10-02 14:20:00,81.4,65.2,29.62,SSE,158,12.0,24.0,58,0.00,,---,0.00,196.00,VWS V14.01,2013-10-02 19:20:00,
2013-10-02 14:25:00,81.4,65.2,29.62,SSE,158,13.0,24.0,58,0.00,,---,0.00,233.00,VWS V14.01,2013-10-02 19:25:00,
2013-10-02 14:30:00,81.6,64.9,29.61,SSE,158,11.0,21.0,57,0.00,,---,0.00,230.00,VWS V14.01,2013-10-02 19:30:00,
2013-10-02 14:35:00,82.2,66.0,29.61,SSE,158,13.0,20.0,58,0.00,,---,0.00,482.00,VWS V14.01,2013-10-02 19:35:00,
2013-10-02 14:40:00,82.6,64.8,29.61,SSE,158,19.0,24.0,55,0.00,,---,0.00,482.00,VWS V14.01,2013-10-02 19:40:00,
2013-10-02 14:45:00,82.4,64.1,29.60,SSE,158,17.0,24.0,54,0.00,,---,0.00,482.00,VWS V14.01,2013-10-02 19:45:00,
2013-10-02 14:50:00,82.0,65.8,29.60,SSE,158,12.0,16.0,58,0.00,,---,0.00,482.00,VWS V14.01,2013-10-02 19:50:00,
2013-10-02 14:55:00,82.2,65.5,29.60,SSE,158,11.0,14.0,57,0.00,,---,0.00,699.00,VWS V14.01,2013-10-02 19:55:00,
2013-10-02 15:00:00,83.4,65.6,29.60,South,180,12.0,20.0,55,0.00,,---,0.00,699.00,VWS V14.01,2013-10-02 20:00:00,
2013-10-02 15:05:00,83.4,65.6,29.60,SSE,158,12.0,17.0,55,0.00,,---,0.00,699.00,VWS V14.01,2013-10-02 20:05:00,
2013-10-02 15:10:00,83.4,65.6,29.60,SSE,158,9.0,14.0,55,0.00,,---,0.00,699.00,VWS V14.01,2013-10-02 20:10:00,
2013-10-02 15:15:00,83.6,65.2,29.59,SSE,158,11.0,25.0,54,0.00,,---,0.00,172.00,VWS V14.01,2013-10-02 20:15:00,
2013-10-02 15:20:00,82.8,65.0,29.59,SSE,158,10.0,14.0,55,0.00,,---,0.00,171.00,VWS V14.01,2013-10-02 20:20:00,
2013-10-02 15:25:00,82.8,65.0,29.59,SSE,158,15.0,25.0,55,0.00,,---,0.00,171.00,VWS V14.01,2013-10-02 20:25:00,
2013-10-02 15:30:00,83.8,64.3,29.59,SSE,158,13.0,21.0,52,0.00,,---,0.00,171.00,VWS V14.01,2013-10-02 20:30:00,
2013-10-02 15:44:00,83.2,64.8,29.58,South,169,8.0,13.0,54,0.00,,---,0.00,165.00,VWS V14.01,2013-10-02 20:44:00,
2013-10-02 15:45:00,83.0,64.7,29.58,SSE,161,9.0,13.0,54,0.00,,---,0.00,197.00,VWS V14.01,2013-10-02 20:45:00,
2013-10-02 15:49:00,82.8,65.0,29.58,SSW,200,18.0,21.0,55,0.00,,---,0.00,621.00,VWS V14.01,2013-10-02 20:49:00,
2013-10-02 15:50:00,82.8,65.0,29.58,SSW,206,18.0,21.0,55,0.00,,---,0.00,621.00,VWS V14.01,2013-10-02 20:50:00,
2013-10-02 15:54:00,82.6,64.8,29.58,SSW,192,18.0,25.0,55,0.00,,---,0.00,181.00,VWS V14.01,2013-10-02 20:54:00,
2013-10-02 15:55:00,82.6,64.8,29.58,South,171,18.0,25.0,55,0.00,,---,0.00,607.00,VWS V14.01,2013-10-02 20:55:00,
2013-10-02 16:00:00,83.2,64.3,29.58,SSW,192,13.0,25.0,53,0.00,,---,0.00,551.00,VWS V14.01,2013-10-02 21:00:00,
2013-10-02 16:05:00,83.4,65.0,29.58,SSE,155,12.0,24.0,54,0.00,,---,0.00,575.00,VWS V14.01,2013-10-02 21:05:00,
2013-10-02 16:10:00,84.1,64.6,29.58,South,171,21.0,24.0,52,0.00,,---,0.00,501.00,VWS V14.01,2013-10-02 21:10:00,
2013-10-02 16:15:00,84.1,64.6,29.58,SW,227,7.0,16.0,52,0.00,,---,0.00,500.00,VWS V14.01,2013-10-02 21:15:00,
2013-10-02 16:20:00,84.3,64.8,29.58,South,180,12.0,19.0,52,0.00,,---,0.00,509.00,VWS V14.01,2013-10-02 21:20:00,
2013-10-02 16:25:00,84.5,65.5,29.58,WSW,248,11.0,16.0,53,0.00,,---,0.00,479.00,VWS V14.01,2013-10-02 21:25:00,
2013-10-02 16:30:00,84.5,65.5,29.57,North,0,12.0,18.0,53,0.00,,---,0.00,479.00,VWS V14.01,2013-10-02 21:30:00,
2013-10-02 16:35:00,84.5,64.4,29.57,North,0,12.0,20.0,51,0.00,,---,0.00,486.00,VWS V14.01,2013-10-02 21:35:00,
2013-10-02 16:40:00,84.5,65.0,29.57,North,0,11.0,19.0,52,0.00,,---,0.00,466.00,VWS V14.01,2013-10-02 21:40:00,
2013-10-02 16:45:00,84.5,65.0,29.57,South,180,10.0,14.0,52,0.00,,---,0.00,459.00,VWS V14.01,2013-10-02 21:45:00,
2013-10-02 16:50:00,84.3,64.8,29.57,North,0,11.0,17.0,52,0.00,,---,0.00,419.00,VWS V14.01,2013-10-02 21:50:00,
2013-10-02 16:55:00,84.1,64.6,29.57,NNW,338,11.0,17.0,52,0.00,,---,0.00,387.00,VWS V14.01,2013-10-02 21:55:00,
2013-10-02 17:00:00,84.1,64.6,29.57,SSE,158,11.0,19.0,52,0.00,,---,0.00,387.00,VWS V14.01,2013-10-02 22:00:00,
2013-10-02 17:05:00,84.0,64.5,29.57,NW,315,12.0,19.0,52,0.00,,---,0.00,336.00,VWS V14.01,2013-10-02 22:05:00,
2013-10-02 17:10:00,83.8,64.3,29.57,South,180,13.0,21.0,52,0.00,,---,0.00,305.00,VWS V14.01,2013-10-02 22:10:00,
2013-10-02 17:15:00,83.6,64.1,29.57,SSW,202,14.0,20.0,52,0.00,,---,0.00,303.00,VWS V14.01,2013-10-02 22:15:00,
2013-10-02 17:20:00,83.6,64.1,29.57,SSE,158,17.0,19.0,52,0.00,,---,0.00,303.00,VWS V14.01,2013-10-02 22:20:00,
2013-10-02 17:25:00,83.4,64.0,29.57,SSE,158,12.0,20.0,52,0.00,,---,0.00,279.00,VWS V14.01,2013-10-02 22:25:00,
2013-10-02 17:30:00,83.4,64.5,29.57,SSW,202,13.0,20.0,53,0.00,,---,0.00,269.00,VWS V14.01,2013-10-02 22:30:00,
2013-10-02 17:35:00,83.0,64.7,29.57,WSW,248,11.0,17.0,54,0.00,,---,0.00,239.00,VWS V14.01,2013-10-02 22:35:00,
2013-10-02 17:40:00,82.8,65.0,29.57,SSW,202,12.0,21.0,55,0.00,,---,0.00,212.00,VWS V14.01,2013-10-02 22:40:00,
2013-10-02 17:45:00,82.6,64.8,29.57,South,180,11.0,18.0,55,0.00,,---,0.00,209.00,VWS V14.01,2013-10-02 22:45:00,
2013-10-02 17:50:00,82.6,64.8,29.57,South,180,10.0,13.0,55,0.00,,---,0.00,198.00,VWS V14.01,2013-10-02 22:50:00,
2013-10-02 17:55:00,82.4,64.6,29.57,SSW,202,12.0,20.0,55,0.00,,---,0.00,195.00,VWS V14.01,2013-10-02 22:55:00,
2013-10-02 18:00:00,82.4,64.6,29.57,South,180,10.0,16.0,55,0.00,,---,0.00,199.00,VWS V14.01,2013-10-02 23:00:00,
2013-10-02 18:05:00,82.4,65.1,29.57,SSW,202,11.0,14.0,56,0.00,,---,0.00,194.00,VWS V14.01,2013-10-02 23:05:00,
2013-10-02 18:10:00,81.8,64.6,29.57,WNW,292,12.0,17.0,56,0.00,,---,0.00,138.00,VWS V14.01,2013-10-02 23:10:00,
2013-10-02 18:15:00,81.4,65.2,29.57,South,180,10.0,18.0,58,0.00,,---,0.00,103.00,VWS V14.01,2013-10-02 23:15:00,
2013-10-02 18:20:00,81.1,64.9,29.57,SSW,202,12.0,17.0,58,0.00,,---,0.00,92.00,VWS V14.01,2013-10-02 23:20:00,
2013-10-02 18:25:00,80.9,65.2,29.57,South,180,9.0,16.0,59,0.00,,---,0.00,84.00,VWS V14.01,2013-10-02 23:25:00,
2013-10-02 18:30:00,80.7,65.5,29.57,South,180,7.0,10.0,60,0.00,,---,0.00,77.00,VWS V14.01,2013-10-02 23:30:00,
2013-10-02 18:35:00,80.5,65.3,29.57,SSE,158,7.0,11.0,60,0.00,,---,0.00,77.00,VWS V14.01,2013-10-02 23:35:00,
2013-10-02 18:40:00,80.3,65.2,29.57,SSE,158,7.0,9.0,60,0.00,,---,0.00,77.00,VWS V14.01,2013-10-02 23:40:00,
2013-10-02 18:45:00,79.9,65.3,29.57,South,180,8.0,13.0,61,0.00,,---,0.00,47.00,VWS V14.01,2013-10-02 23:45:00,
2013-10-02 18:50:00,79.8,65.2,29.57,South,180,7.0,8.0,61,0.00,,---,0.00,35.00,VWS V14.01,2013-10-02 23:50:00,
2013-10-02 18:55:00,79.6,65.4,29.57,North,0,7.0,13.0,62,0.00,,---,0.00,27.00,VWS V14.01,2013-10-02 23:55:00,
2013-10-02 19:00:00,79.0,65.3,29.58,North,0,7.0,12.0,63,0.00,,---,0.00,16.00,VWS V14.01,2013-10-03 00:00:00,
2013-10-02 19:05:00,78.8,65.2,29.58,North,0,8.0,14.0,63,0.00,,---,0.00,12.00,VWS V14.01,2013-10-03 00:05:00,
2013-10-02 19:10:00,78.5,65.3,29.58,North,0,7.0,11.0,64,0.00,,---,0.00,7.00,VWS V14.01,2013-10-03 00:10:00,
2013-10-02 19:15:00,78.3,65.1,29.58,North,0,7.0,16.0,64,0.00,,---,0.00,4.00,VWS V14.01,2013-10-03 00:15:00,
2013-10-02 19:20:00,77.9,65.2,29.58,North,0,6.0,13.0,65,0.00,,---,0.00,0.00,VWS V14.01,2013-10-03 00:20:00,
2013-10-02 19:25:00,77.7,65.0,29.58,North,0,7.0,11.0,65,0.00,,---,0.00,0.00,VWS V14.01,2013-10-03 00:25:00,
2013-10-02 19:30:00,77.7,65.0,29.58,North,0,8.0,11.0,65,0.00,,---,0.00,0.00,VWS V14.01,2013-10-03 00:30:00,
2013-10-02 19:35:00,77.4,65.2,29.58,North,0,6.0,7.0,66,0.00,,---,0.00,0.00,VWS V14.01,2013-10-03 00:35:00,
2013-10-02 19:40:00,77.2,65.4,29.58,North,0,6.0,8.0,67,0.00,,---,0.00,0.00,VWS V14.01,2013-10-03 00:40:00,
2013-10-02 19:45:00,76.8,65.0,29.58,North,0,6.0,10.0,67,0.00,,---,0.00,0.00,VWS V14.01,2013-10-03 00:45:00,
2013-10-02 19:50:00,76.5,65.6,29.58,North,0,6.0,8.0,69,0.00,,---,0.00,0.00,VWS V14.01,2013-10-03 00:50:00,
2013-10-02 19:55:00,76.5,65.6,29.58,North,0,5.0,6.0,69,0.00,,---,0.00,0.00,VWS V14.01,2013-10-03 00:55:00,
2013-10-02 20:00:00,76.1,65.2,29.58,North,0,5.0,8.0,69,0.00,,---,0.00,0.00,VWS V14.01,2013-10-03 01:00:00,
2013-10-02 20:05:00,75.8,65.3,29.58,North,0,5.0,8.0,70,0.00,,---,0.00,0.00,VWS V14.01,2013-10-03 01:05:00,
2013-10-02 20:10:00,75.6,65.1,29.58,North,0,6.0,8.0,70,0.00,,---,0.00,0.00,VWS V14.01,2013-10-03 01:10:00,
2013-10-02 20:22:00,75.4,65.3,29.58,North,0,6.0,10.0,71,0.00,,---,0.00,0.00,VWS V14.01,2013-10-03 01:22:00,
2013-10-02 20:27:00,75.1,65.5,29.58,North,0,5.0,7.0,72,0.00,,---,0.00,0.00,VWS V14.01,2013-10-03 01:27:00,
2013-10-02 20:32:00,74.7,65.1,29.58,North,354,6.0,7.0,72,0.00,,---,0.00,0.00,VWS V14.01,2013-10-03 01:32:00,
2013-10-02 20:38:00,74.6,65.4,29.58,North,0,7.0,8.0,73,0.00,,---,0.00,0.00,VWS V14.01,2013-10-03 01:38:00,
2013-10-02 20:43:00,74.4,65.6,29.58,North,0,5.0,7.0,74,0.00,,---,0.00,0.00,VWS V14.01,2013-10-03 01:43:00,
2013-10-02 20:48:00,74.2,65.4,29.59,North,349,6.0,13.0,74,0.00,,---,0.00,0.00,VWS V14.01,2013-10-03 01:48:00,
2013-10-02 20:53:00,74.2,65.4,29.59,North,0,5.0,10.0,74,0.00,,---,0.00,0.00,VWS V14.01,2013-10-03 01:53:00,
2013-10-02 20:58:00,74.0,65.2,29.59,North,349,5.0,8.0,74,0.00,,---,0.00,0.00,VWS V14.01,2013-10-03 01:58:00,
2013-10-02 21:03:00,74.0,65.2,29.59,North,0,6.0,8.0,74,0.00,,---,0.00,0.00,VWS V14.01,2013-10-03 02:03:00,
2013-10-02 21:05:00,74.0,65.2,29.59,WSW,237,6.0,12.0,74,0.00,,---,0.00,0.00,VWS V14.01,2013-10-03 02:05:00,
2013-10-02 21:10:00,74.0,65.2,29.59,NW,308,6.0,10.0,74,0.00,,---,0.00,0.00,VWS V14.01,2013-10-03 02:10:00,
2013-10-02 21:15:00,74.0,65.2,29.59,NW,315,6.0,11.0,74,0.00,,---,0.00,0.00,VWS V14.01,2013-10-03 02:15:00,
2013-10-02 21:20:00,74.0,65.2,29.59,NNW,343,6.0,10.0,74,0.00,,---,0.00,0.00,VWS V14.01,2013-10-03 02:20:00,
2013-10-02 21:25:00,73.9,65.1,29.59,North,353,7.0,10.0,74,0.00,,---,0.00,0.00,VWS V14.01,2013-10-03 02:25:00,
2013-10-02 21:30:00,73.9,65.1,29.59,NNW,347,7.0,9.0,74,0.00,,---,0.00,0.00,VWS V14.01,2013-10-03 02:30:00,
2013-10-02 21:35:00,73.7,64.9,29.59,NNW,347,7.0,7.0,74,0.00,,---,0.00,0.00,VWS V14.01,2013-10-03 02:35:00,
2013-10-02 21:40:00,73.5,65.1,29.59,North,0,6.0,6.0,75,0.00,,---,0.00,0.00,VWS V14.01,2013-10-03 02:40:00,
2013-10-02 21:45:00,73.5,65.1,29.59,North,0,9.0,10.0,75,0.00,,---,0.00,0.00,VWS V14.01,2013-10-03 02:45:00,
2013-10-02 21:51:00,73.3,64.9,29.59,WSW,257,8.0,11.0,75,0.00,,---,0.00,0.00,VWS V14.01,2013-10-03 02:51:00,
2013-10-02 21:56:00,73.2,65.2,29.59,North,354,7.0,8.0,76,0.00,,---,0.00,0.00,VWS V14.01,2013-10-03 02:56:00,
2013-10-02 22:01:00,73.0,65.0,29.59,North,0,6.0,8.0,76,0.00,,---,0.00,0.00,VWS V14.01,2013-10-03 03:01:00,
2013-10-02 22:06:00,72.8,64.8,29.59,North,353,7.0,11.0,76,0.00,,---,0.00,0.00,VWS V14.01,2013-10-03 03:06:00,
2013-10-02 22:11:00,72.8,64.8,29.59,North,0,7.0,12.0,76,0.00,,---,0.00,0.00,VWS V14.01,2013-10-03 03:11:00,
2013-10-02 22:16:00,72.8,64.8,29.59,SW,223,8.0,11.0,76,0.00,,---,0.00,0.00,VWS V14.01,2013-10-03 03:16:00,
2013-10-02 22:21:00,72.7,64.7,29.59,NNW,344,11.0,13.0,76,0.00,,---,0.00,0.00,VWS V14.01,2013-10-03 03:21:00,
2013-10-02 22:26:00,72.7,64.7,29.59,NNW,347,3.0,13.0,76,0.00,,---,0.00,0.00,VWS V14.01,2013-10-03 03:26:00,
2013-10-02 22:31:00,72.5,64.5,29.59,North,0,10.0,11.0,76,0.00,,---,0.00,0.00,VWS V14.01,2013-10-03 03:31:00,
2013-10-02 22:36:00,72.3,64.7,29.59,North,0,11.0,14.0,77,0.00,,---,0.00,0.00,VWS V14.01,2013-10-03 03:36:00,
2013-10-02 22:41:00,72.1,64.5,29.59,NNW,347,8.0,13.0,77,0.00,,---,0.00,0.00,VWS V14.01,2013-10-03 03:41:00,
2013-10-02 22:46:00,72.1,64.9,29.59,South,172,12.0,12.0,78,0.00,,---,0.00,0.00,VWS V14.01,2013-10-03 03:46:00,
2013-10-02 22:51:00,72.0,64.8,29.59,WSW,244,11.0,17.0,78,0.00,,---,0.00,0.00,VWS V14.01,2013-10-03 03:51:00,
2013-10-02 22:56:00,72.0,64.8,29.59,North,0,11.0,12.0,78,0.00,,---,0.00,0.00,VWS V14.01,2013-10-03 03:56:00,
2013-10-02 23:01:00,71.8,64.6,29.59,NW,319,11.0,11.0,78,0.00,,---,0.00,0.00,VWS V14.01,2013-10-03 04:01:00,
2013-10-02 23:02:00,71.8,64.6,29.59,NNW,347,8.0,11.0,78,0.00,,---,0.00,0.00,VWS V14.01,2013-10-03 04:02:00,
2013-10-02 23:03:00,71.8,64.6,29.59,North,0,11.0,14.0,78,0.00,,---,0.00,0.00,VWS V14.01,2013-10-03 04:03:00,
2013-10-02 23:05:00,71.8,64.6,29.59,North,0,10.0,14.0,78,0.00,,---,0.00,0.00,VWS V14.01,2013-10-03 04:05:00,
2013-10-02 23:10:00,71.8,64.6,29.59,WNW,294,8.0,17.0,78,0.00,,---,0.00,0.00,VWS V14.01,2013-10-03 04:10:00,
2013-10-02 23:15:00,71.6,64.4,29.58,North,357,11.0,13.0,78,0.00,,---,0.00,0.00,VWS V14.01,2013-10-03 04:15:00,
2013-10-02 23:20:00,71.6,64.4,29.58,South,174,8.0,13.0,78,0.00,,---,0.00,0.00,VWS V14.01,2013-10-03 04:20:00,
2013-10-02 23:25:00,71.8,64.6,29.58,North,353,10.0,13.0,78,0.00,,---,0.00,0.00,VWS V14.01,2013-10-03 04:25:00,
2013-10-02 23:30:00,71.8,64.6,29.58,North,0,15.0,17.0,78,0.00,,---,0.00,0.00,VWS V14.01,2013-10-03 04:30:00,
2013-10-02 23:35:00,71.8,64.6,29.58,North,356,9.0,15.0,78,0.00,,---,0.00,0.00,VWS V14.01,2013-10-03 04:35:00,
2013-10-02 23:40:00,72.0,65.1,29.58,North,354,7.0,13.0,79,0.00,,---,0.00,0.00,VWS V14.01,2013-10-03 04:40:00,
2013-10-02 23:45:00,72.1,64.9,29.57,North,0,12.0,13.0,78,0.00,,---,0.00,0.00,VWS V14.01,2013-10-03 04:45:00,
2013-10-02 23:50:00,72.1,64.9,29.57,NNW,346,8.0,12.0,78,0.00,,---,0.00,0.00,VWS V14.01,2013-10-03 04:50:00,
2013-10-02 23:55:00,72.3,65.1,29.57,North,352,5.0,13.0,78,0.00,,---,0.00,0.00,VWS V14.01,2013-10-03 04:55:00,